Regional Weather Roundup
Issued by NWS Newport/Morehead, NC

Current Version | Previous Version | Graphics & Text | Print | Product List | Glossary On
Versions: 1 2 3 4 5 6 7 8 9 10 11 12 13 14 15 16 17 18 19 20 21 22 23 24 25 26 27 28 29 30 31 32 33 34 35 36 37 38 39 40 41 42 43 44 45 46 47 48 49 50
999 ASUS42 KMHX 110125 RWRMHX WEATHER ROUNDUP FOR EASTERN NORTH CAROLINA NATIONAL WEATHER SERVICE NEWPORT/MOREHEAD CITY NC 800 PM EST WED FEB 10 2016 NOTE: "FAIR" INDICATES FEW OR NO CLOUDS BELOW 12,000 FEET WITH NO SIGNIFICANT WEATHER AND/OR OBSTRUCTIONS TO VISIBILITY NCZ015>017-031-032-045>047-102-103-110200- NORTH COAST CITY SKY/WX TMP DP RH WIND PRES REMARKS EDENTON CLOUDY 40 19 43 W12 29.92S ELIZABETH CITY CLOUDY 36 19 50 W10 29.90S KITTY HAWK CLOUDY 39 19 45 W8 29.89S MANTEO CLOUDY 38 21 50 W13 29.91S $$ NCZ045>047-081-094-103-104-110200- CENTRAL COAST CITY SKY/WX TMP DP RH WIND PRES REMARKS FRISCO CLOUDY 40 18 41 W12G22 29.93R SWANQUARTER N/A 39 N/A N/A NW13G21 29.91S $$ NCZ095-097-098-100-101-110200- SOUTHERN COAST CITY SKY/WX TMP DP RH WIND PRES REMARKS BEAUFORT PTCLDY 37 20 50 W16 29.97R CEDAR ISLAND N/A 37 N/A N/A W13G30 30.00S JACKSONVILLE MOCLDY 36 16 44 W12G23 29.99R PINEY ISLAND CLOUDY N/A N/A N/A W16 29.95R WILMINGTON CLEAR 35 17 47 W8 30.03R $$ NCZ011>013-027>030-043-044-078>080-089-090>093-098-110200- COASTAL PLAIN CITY SKY/WX TMP DP RH WIND PRES REMARKS AHOSKIE MOCLDY 32 13 44 NW6 29.96R CLINTON CLEAR 32 20 59 SW5 30.01R ELIZABETHTOWN CLEAR 32 17 55 CALM 30.02R GOLDSBORO CLEAR 32 18 55 SW9 29.96R GREENVILLE MOCLDY 36 18 48 W8 29.98R HAVELOCK PTCLDY 36 19 50 W15 29.98R KENANSVILLE CLEAR 31 19 59 CALM 30.00R KINSTON CLEAR 34 18 51 SW7 29.98R NEW BERN MOCLDY 37 16 42 W14G23 29.98R RICHLANDS CLEAR 34 14 44 SW7 30.00R ROCKY MOUNT MOCLDY 34 12 40 W16G24 29.97R WASHINGTON CLOUDY 36 18 48 W9G16 29.95R WHITEVILLE CLEAR 33 18 52 SW3 30.03R $$ AMZ130-135-150-152-154-156-158-170-250-252-270-ANZ085-086-088-633-658-670-110200- MARINE OBSERVATIONS STATION/POSITION TIME TEMP WIND PRES WAVE SWELL AIR SEA DIR/SP/G HT/PER HT/PER (UTC) (F) (DEG/KT/KT) (MB) (FT/S) (FT/S) CHESAPEAKE LIGHT 0100 39 260/ 23/ 27 1011.6 64 E VA BEACH 0050 42 49 290/ 17/ 21 1010.5 5/12 3/12 DUCK 0100 39 270/ 16/ 20 1011.9 2 E DUCK 0011 44 N/A 3/13 3/13 OREGON INLET 0100 39 44 250/ 9/ 15 1012.8 13E OREGON INLT 0100 47 N/A 4/13 3/13 HATTERAS CG 0100 40 49 270/ 20/ 25 1013.0 DIAMOND BUOY 0050 44 72 280/ 21/ 27 1013.0 5/13 3/13 CAPE LOOKOUT NOT AVBL BEAUFORT LAB 0100 38 47 290/ 9/ 14 1014.0 30 SE NEW RVR IN 0108 42 60 1015.2 30 SE NEW RVR IN 0025 60 N/A 8/ 9 2/14 27 SE WRIGHTSVLE 0008 41 62 360/ 25/ 35 1014.1 5 SE WRIGHTSVLE 0008 39 51 280/ 17/ 23 1016.2 225 S CAPE HAT 0050 54 68 290/ 33/ 43 N/A 18/10 41 SE CHARLESTON 0050 44 64 270/ 25/ 31 1018.6 8/ 7 2/14 $$

USA.gov is the U.S. government's official web portal to all federal, state and local government web resources and services.